THORAD AGENA D DEB, 42515

Orbit data source: Space-Track

THORAD AGENA D DEB, 42515 is space debris in SSO originally from a launch on Wed, 08 Apr 1970 UTC launched from the Air Force Western Test Range (AFWTR). Debris objects in space refer to the collection of defunct objects orbiting the Earth. Examples of debris include non-operational satellites, rocket bodies, and fragments generated from explosions, collisions, or faulty payload assembly.

Loading next visibility...
Identifier
42515, 1970-025RV
Orbit
SSO
Country
Flag of USUS
Related business
Manufacturer
Unknown
Mission
Spacecraft
Bus & Motor
Unknown
Mass
Unknown
Launch date (UTC)
1970-04-08 (56 years ago)
Launch vehicle
Unknown
Launch site
Air Force Western Test Range (AFWTR)
Object type
Payload
Rocket body
Debris
Shape & HBR
Unknown shape, 0.1 m
Radar Cross Section
Medium (>0.1 m² and <1 m²)

Expand to show TLE details & history
Last TLE update: 3 days ago

TLE from 3 days ago
0 THORAD AGENA D DEB
1 42515U 70025RV  26170.55192886  .00000084  00000-0  19043-3 0  9993
2 42515  99.3922 102.0147 0042247  98.5082 262.0845 13.51497286620044
Epoch: 2026-06-19T13:14Z
TLE epoch observation values (Epoch: 2026-06-19T13:14:46.653Z)
Latitude
-0.00005°
Longitude
-4.45895°
Altitude
1,074.015 km
Speed
7.313 km/s
True Right ascension
06h 48m 03s
True Declination
0° 00' 00"
Sunlit
Object was in daylight at epoch
Visualization orbit readout
Latitude
Unknown
Longitude
Unknown
Altitude
Unknown
Speed
Unknown
Apparent Right ascension
Unknown
Apparent Declination
Unknown
Sunlit
N/A
Visualization observer readout
Local Sidereal Time
21:41:08
Azimuth
Unknown
Elevation
Unknown
Doppler factor
Unknown
Orbital elements
Apogee altitude
1,095.479 km
Perigee altitude
1,032.598 km
Semi-major axis
7,442.176 km
Eccentricity
0.00422
Inclination
99.3922°
RAAN
102.0147°
Arg. of periapsis
98.5082°
True anomaly
261.60535°
Mean anomaly
262.0845°
Eccentric anomaly
261.84489°
Mean motion
3.3806 °/min
Orbital period
106.49 mins
BSTAR
0.00019043
Loading maneuver chart data...
Computing Atmospheric mass density...

Documentation

Showing up to 5 results
|